Wind_Speed
16 16 13 3 2 2 3 3 2 7 4 6 20 4 6 4 2 3 17 21 27 28 25 23 22 21 21 22 21 21 20 20 21 19 18 18 19 19 18 16 15 14 13 13 13 13 12 12 12
18 16 4 1 2 2 3 1 6 9 3 8 12 9 4 3 4 11 14 31 30 31 26 24 23 21 21 21 21 20 18 20 19 19 18 18 17 17 16 15 14 12 11 11 12 13 12 13 14
20 7 1 1 2 2 2 3 6 3 2 7 5 6 4 5 11 18 24 34 33 30 27 24 23 21 20 19 19 18 18 17 18 18 18 16 17 16 15 15 13 11 9 9 11 11 11 11 14
11 3 1 2 3 4 4 6 12 10 5 6 10 8 5 2 20 14 36 35 33 30 27 24 22 20 20 18 18 17 17 17 18 16 17 16 16 16 15 14 14 12 10 9 9 10 10 12 13
4 2 2 1 3 3 1 9 8 8 8 9 4 4 6 7 16 33 34 34 34 29 27 24 22 20 19 17 17 16 16 16 16 16 15 16 15 15 15 15 14 12 11 10 10 11 11 12 12
1 1 1 1 3 6 3 2 5 4 5 7 9 9 4 17 30 28 31 33 32 30 27 25 21 20 18 16 16 16 16 15 15 16 15 14 13 13 14 14 13 12 12 12 13 13 11 13 12
3 2 3 1 5 2 5 9 7 4 7 5 13 5 4 16 28 27 31 33 30 29 27 25 21 18 17 15 15 15 15 14 14 14 15 13 13 12 12 12 11 11 11 11 13 13 13 12 9
3 2 3 2 3 4 1 4 4 7 2 6 12 6 9 21 29 28 29 30 28 28 27 25 22 20 19 16 14 14 14 14 13 13 14 12 12 10 12 12 11 10 10 10 11 13 10 11 9
4 2 3 5 6 2 4 4 6 3 8 4 4 7 18 37 31 28 27 25 26 26 27 25 23 21 19 17 14 13 14 13 13 12 12 13 12 12 10 9 10 9 8 8 8 11 9 10 11
3 2 5 6 8 1 2 8 11 6 12 4 11 21 32 34 30 25 25 24 23 22 27 25 23 21 19 17 15 15 14 14 13 13 12 11 10 9 9 8 7 7 7 8 7 7 8 9 11
5 4 3 2 9 3 5 12 9 12 3 5 22 26 28 30 26 23 23 25 25 25 27 27 24 22 20 19 17 16 15 14 12 11 10 10 9 8 7 7 7 5 5 5 6 7 6 7 10
3 9 10 3 9 5 7 9 6 10 6 13 23 31 29 24 20 24 23 24 25 28 30 28 25 23 20 18 18 17 16 14 12 11 12 12 10 8 6 6 6 4 4 5 5 7 6 5 9
12 11 8 15 15 10 4 12 6 12 10 21 21 24 26 22 23 24 24 24 27 27 30 30 27 24 22 20 19 18 17 14 12 11 10 12 10 9 7 6 5 4 3 4 4 6 6 5 4
6 14 17 15 12 6 8 5 7 6 18 22 22 24 22 23 26 24 26 27 28 29 32 31 29 26 23 22 21 20 18 15 13 11 9 9 10 9 6 6 4 5 3 4 3 5 6 8 4
11 9 9 14 10 2 9 3 4 17 18 23 21 19 19 19 26 25 30 30 32 32 34 33 30 27 26 24 22 20 17 15 13 12 11 11 12 10 7 6 6 6 4 2 3 3 8 6 9
5 5 3 9 7 6 7 3 13 17 21 21 21 19 20 20 23 24 26 30 33 33 34 35 32 30 28 25 22 20 17 17 18 17 15 14 13 11 9 6 6 6 4 2 3 2 4 10 9
3 4 7 8 10 4 8 4 14 18 19 19 20 20 19 17 21 26 25 30 33 34 36 37 35 33 32 27 23 19 17 16 16 20 20 17 14 10 8 7 8 6 3 2 3 2 2 3 3
6 4 4 6 4 11 11 6 18 19 19 21 19 19 20 20 22 27 30 27 31 35 37 38 37 34 33 29 24 20 18 12 15 18 21 19 16 14 10 6 6 7 5 5 5 4 5 7 4
4 4 6 6 6 8 15 9 20 22 16 18 19 18 20 20 20 28 29 29 30 34 36 38 39 37 36 34 29 27 23 17 13 15 20 20 18 16 12 8 10 8 6 4 6 4 5 5 8
8 5 6 10 5 6 6 17 18 22 26 25 25 22 22 19 18 25 30 32 29 35 38 39 42 42 40 38 36 33 29 22 16 13 17 21 19 17 14 11 11 10 8 7 8 6 6 4 7
13 13 9 9 5 3 4 7 14 19 6 12 16 18 19 23 22 22 28 34 33 35 39 39 43 43 45 42 38 30 28 25 20 17 16 19 20 18 16 13 13 12 11 8 8 8 8 6 6
12 12 14 14 3 4 5 4 11 16 22 20 20 21 21 22 21 20 25 32 35 33 39 42 42 41 45 43 40 35 30 26 30 25 19 17 19 22 20 16 14 13 12 11 9 9 8 7 10
14 6 9 8 3 3 9 3 7 15 19 22 23 24 24 24 24 23 24 37 39 34 36 42 43 41 40 45 40 41 32 32 27 30 23 19 20 23 23 19 15 16 13 12 10 10 11 9 12
4 4 3 1 3 10 17 8 5 13 25 22 22 24 25 25 26 25 34 33 35 36 35 37 40 42 42 44 44 41 37 35 32 28 27 23 23 25 26 23 20 17 16 14 14 11 13 10 10
11 7 4 4 5 13 7 7 13 22 25 28 28 29 26 23 22 21 24 26 33 37 37 38 40 40 42 45 44 45 43 38 34 31 30 29 27 28 29 27 25 21 19 16 15 16 15 14 13
12 15 6 8 4 8 6 8 6 14 18 26 25 29 22 22 22 23 22 31 35 38 37 40 40 41 41 44 46 47 44 41 36 35 33 30 29 31 30 30 28 24 21 18 18 17 16 16 17
8 19 12 5 3 2 4 5 6 7 13 17 21 22 20 18 19 20 22 32 35 39 41 43 41 42 42 45 44 42 43 41 39 36 35 35 31 29 31 30 30 27 24 22 21 21 21 19 18
15 8 7 4 10 5 4 5 7 12 12 14 19 21 21 22 20 18 20 28 34 40 43 41 43 44 45 44 43 41 44 46 43 39 36 37 32 31 29 30 30 31 28 25 25 24 24 23 20
8 11 4 6 5 13 2 8 8 9 14 19 19 23 22 23 24 23 23 33 37 34 38 41 40 40 39 40 39 39 40 41 38 38 38 37 36 33 29 29 28 29 31 30 29 29 28 28 26
9 11 8 10 13 1 3 16 5 11 13 14 16 19 19 23 25 24 25 31 34 33 34 38 38 38 40 41 40 39 38 39 39 41 40 38 38 35 33 30 30 30 30 33 32 33 32 31 31
Wind_Direction
161 157 155 149 223 227 249 241 238 145 200 207 157 175 149 35 132 180 149 145 147 145 143 140 137 131 124 117 118 116 114 115 114 114 118 121 123 123 123 124 124 125 122 117 111 106 107 110 115
159 154 190 188 211 225 245 243 241 167 148 106 131 116 69 90 98 120 125 148 147 146 144 142 137 132 126 123 122 118 114 115 116 116 118 117 119 116 118 122 123 123 124 119 115 109 110 117 116
163 168 156 152 257 225 308 289 278 222 96 158 118 63 87 108 122 140 147 146 147 148 147 144 140 134 130 127 124 118 117 118 115 118 114 113 114 116 118 120 120 116 111 102 103 109 113 112 113
166 206 190 224 278 268 150 253 234 223 182 82 106 72 78 209 143 148 148 147 149 151 148 148 141 137 134 132 126 123 122 123 119 116 116 114 116 117 117 117 114 111 110 103 101 103 117 117 114
253 232 225 214 268 265 23 324 334 168 154 128 100 89 96 95 127 140 146 150 151 150 150 148 144 142 138 138 135 131 128 125 121 113 115 114 115 118 118 113 109 108 106 105 102 102 125 119 115
119 341 237 104 294 302 4 22 313 236 129 118 102 106 114 141 139 144 148 151 152 150 151 151 150 146 145 139 139 136 134 130 124 120 114 117 118 119 114 111 111 108 102 94 92 94 116 121 122
166 188 188 190 287 348 136 154 215 210 161 122 141 98 106 148 147 147 150 153 154 153 153 154 153 151 151 146 143 139 136 130 126 126 126 123 122 119 116 114 113 110 101 93 93 100 112 124 121
185 129 194 209 342 309 89 148 179 143 161 104 151 155 162 163 151 151 154 155 156 158 161 158 158 160 158 153 147 144 138 135 135 131 132 129 130 124 120 121 118 112 102 98 95 91 114 131 121
151 217 211 163 166 21 105 166 151 48 149 177 154 139 143 151 148 146 147 154 158 163 164 164 166 167 162 155 151 150 145 143 138 137 141 142 142 138 134 125 118 112 105 87 87 103 106 120 127
175 202 228 178 146 26 173 166 159 165 179 67 91 111 142 150 154 147 155 159 161 166 171 172 173 170 166 162 163 158 154 153 149 145 139 143 145 145 147 141 130 117 105 99 88 86 125 140 146
185 225 206 213 140 155 237 173 172 152 211 196 148 143 154 157 160 154 159 167 169 170 173 180 179 175 173 171 171 164 164 166 167 171 172 162 162 155 157 157 151 133 104 102 93 99 104 158 173
239 247 253 156 210 222 255 146 155 164 206 151 157 152 155 163 165 163 165 169 167 173 179 184 185 181 181 180 178 169 173 175 177 173 167 167 175 166 164 171 158 141 112 102 104 112 111 118 187
238 261 260 246 252 244 226 181 174 200 129 138 148 158 161 164 166 167 167 171 174 177 184 189 189 188 185 189 186 182 182 177 172 170 182 194 180 170 171 179 174 160 132 115 106 114 97 114 155
202 228 255 265 250 235 172 158 114 138 138 146 157 164 168 170 170 166 170 175 178 181 188 190 193 193 189 193 192 190 188 187 195 194 178 158 171 180 181 174 152 135 135 152 100 76 107 127 141
264 293 294 274 217 241 116 143 159 149 155 153 163 168 172 176 175 178 178 176 183 186 191 191 194 196 196 196 197 197 198 202 209 207 197 186 170 177 177 171 131 128 127 123 94 98 115 132 166
181 165 254 275 219 189 152 228 136 154 155 165 171 173 177 182 182 182 183 182 187 188 191 193 194 197 198 199 199 204 208 219 229 221 207 199 185 181 184 171 167 149 123 103 77 85 137 138 140
297 191 203 285 224 182 178 117 165 168 164 173 181 179 181 188 186 184 182 187 190 190 193 194 196 199 200 203 209 214 223 235 220 222 210 205 189 185 183 173 174 179 173 183 225 253 200 162 156
190 183 205 228 244 192 201 177 168 180 178 181 186 187 188 192 196 187 187 186 192 194 199 198 200 203 203 205 209 205 198 198 211 214 206 203 197 191 190 186 177 180 180 206 193 205 192 223 147
179 186 194 237 228 187 219 172 183 183 189 191 189 196 195 198 199 196 192 190 189 197 199 199 201 206 208 210 206 200 199 195 184 204 210 206 203 198 192 190 188 190 203 182 180 190 167 151 171
246 251 247 288 216 181 232 217 195 181 196 193 188 194 199 197 195 197 196 197 189 194 199 201 204 208 211 210 207 210 209 206 199 191 204 209 208 212 211 207 198 197 190 192 197 202 180 143 154
220 219 229 235 47 222 114 246 197 202 191 202 203 206 206 200 199 197 193 198 198 192 198 201 204 207 211 211 211 215 217 215 208 203 202 210 215 218 216 217 215 213 211 211 210 204 197 178 163
214 206 223 252 115 222 161 239 207 206 204 198 202 202 208 206 207 207 201 197 201 198 199 203 206 204 208 208 210 211 213 212 219 217 212 211 217 217 219 223 219 210 210 221 224 222 215 197 167
227 164 202 233 196 279 250 133 265 209 210 208 206 208 209 206 207 205 207 201 202 198 195 201 203 204 204 208 208 214 214 220 222 223 221 219 217 217 221 224 223 221 219 224 236 226 211 209 196
161 194 185 74 151 248 248 166 244 190 217 212 211 215 213 202 203 207 212 206 199 198 194 196 196 202 203 208 210 214 215 218 218 223 220 221 220 219 221 225 227 228 229 230 228 227 215 217 219
198 129 231 237 201 237 223 196 216 202 215 210 210 212 215 207 203 200 202 205 202 197 190 192 195 199 202 207 209 214 218 217 216 217 217 221 224 223 221 225 226 228 231 232 229 226 219 221 225
205 203 169 188 178 221 182 209 236 199 215 217 217 217 210 200 201 204 198 202 202 200 191 191 195 198 198 203 208 213 215 218 219 218 217 221 228 228 226 226 229 232 230 232 230 226 223 226 232
200 209 199 95 4 154 223 240 290 194 224 218 217 214 207 205 210 208 205 201 200 198 197 191 194 198 197 201 205 208 212 215 218 220 222 222 228 232 230 231 232 233 234 233 231 229 233 232 236
206 168 192 206 206 235 279 224 224 175 200 211 220 220 213 205 201 207 211 205 198 196 196 195 197 196 198 200 202 205 210 216 220 222 221 221 225 229 231 233 235 236 236 235 233 232 233 232 237
207 202 203 157 178 222 270 250 201 205 189 191 207 222 211 202 202 200 206 204 203 194 194 196 198 198 198 198 200 204 208 214 214 220 224 225 227 229 231 235 237 238 235 235 233 234 234 232 236
289 197 165 204 215 272 190 251 253 214 201 177 203 217 213 205 201 200 198 196 196 195 193 195 196 195 197 197 199 204 208 210 213 218 225 228 230 232 234 236 237 237 237 236 234 235 237 236 237
Height
775 777 779 781 792 792 790 782 764 772 774 756 758 765 776 782 788 808 794 797 802 806 810 813 815 817 819 820 822 823 824 824 826 827 828 828 829 829 831 832 834 834 835 835 836 837 837 838 838
774 777 779 777 791 797 788 773 769 762 756 756 761 768 778 791 786 791 796 800 804 808 811 814 816 819 820 822 823 825 826 827 828 829 829 830 830 831 833 834 835 836 836 837 838 839 840 840 841
775 776 779 784 790 791 786 773 764 761 756 757 765 767 778 789 788 793 796 801 805 810 813 816 818 820 822 824 825 827 828 829 830 830 831 831 832 833 835 836 837 838 838 839 840 841 842 842 843
774 776 777 787 787 773 776 766 763 759 758 756 763 781 783 785 790 792 797 802 807 811 815 817 819 823 824 826 828 829 830 831 832 833 833 834 835 836 837 838 839 840 841 842 842 843 843 844 844
773 772 784 788 781 768 766 768 765 762 755 759 763 789 791 790 792 795 799 803 807 812 816 819 821 824 826 827 829 831 832 834 834 835 837 837 838 838 839 841 841 842 843 844 844 844 844 845 845
777 778 789 793 778 762 764 765 763 761 763 768 775 785 795 794 796 798 802 806 810 813 816 819 823 825 828 829 831 833 834 835 837 837 839 839 840 841 842 843 843 843 844 845 845 846 847 848 848
779 783 785 780 775 769 768 763 767 766 766 769 768 789 796 796 798 801 803 808 812 815 818 820 824 826 829 830 832 834 836 837 838 839 840 841 842 843 845 844 844 845 846 846 847 847 848 849 850
770 777 785 775 780 774 755 759 762 760 767 764 769 787 795 792 797 802 805 810 813 816 819 821 824 827 829 832 833 836 837 838 839 841 841 843 843 845 847 846 845 846 847 847 849 850 850 851 852
765 784 784 776 776 767 755 761 755 756 764 761 763 769 776 787 796 801 806 812 815 818 820 822 824 827 829 832 835 836 838 839 841 842 843 844 845 846 847 847 847 848 848 849 851 853 853 853 854
771 784 769 755 756 762 754 755 759 763 764 771 772 772 783 788 794 798 804 809 814 817 821 822 824 827 830 832 834 837 839 841 842 843 845 846 847 848 848 849 849 849 850 851 852 853 853 855 855
763 771 757 750 748 752 754 751 749 761 772 765 769 773 782 788 795 798 803 806 810 815 820 822 824 828 830 832 834 837 839 841 843 845 846 847 848 848 849 849 850 850 851 851 853 854 854 855 856
770 751 750 746 742 746 750 745 753 753 754 753 763 762 774 784 790 795 801 805 809 814 818 821 824 827 830 832 834 837 839 842 843 845 846 847 848 849 850 850 851 851 851 852 853 855 856 855 856
761 753 745 742 743 745 740 745 749 753 750 756 767 773 775 783 788 794 799 805 808 812 816 819 823 826 829 831 835 837 839 842 844 845 846 847 849 850 850 850 851 851 851 853 854 856 857 856 855
746 748 744 738 740 739 743 745 746 756 754 761 768 773 777 780 784 792 796 801 805 810 814 817 821 825 829 831 834 837 839 842 844 846 847 848 849 850 850 851 851 851 852 854 855 856 856 856 856
745 756 745 736 737 738 734 754 755 752 759 764 771 775 779 782 785 788 792 796 801 806 811 815 819 824 827 830 833 837 839 841 843 844 847 848 849 850 850 851 851 852 853 854 856 857 857 857 857
751 758 774 734 730 733 737 768 757 754 760 768 770 772 775 778 783 788 792 795 798 803 808 813 817 821 825 829 833 836 838 840 841 843 846 848 848 849 850 852 852 853 853 854 855 857 858 860 859
761 776 765 750 726 733 740 763 758 755 758 767 769 769 773 778 779 783 789 793 796 800 804 810 815 819 823 828 832 835 837 838 839 842 845 847 848 849 851 851 853 854 854 855 856 857 857 858 859
776 768 759 757 733 735 749 750 754 756 757 761 767 766 767 771 772 778 783 789 795 798 802 808 813 817 821 826 830 834 836 837 839 840 843 846 847 849 850 851 853 855 855 856 857 857 857 858 860
748 751 754 741 730 736 742 746 751 750 760 764 764 767 765 766 772 776 780 785 791 796 800 804 810 814 819 823 827 831 833 836 837 839 841 845 847 848 850 851 853 854 855 856 857 858 858 858 861
752 757 757 740 731 739 741 740 738 746 745 744 749 757 759 764 766 771 775 779 783 789 795 800 805 810 815 819 823 827 830 833 836 838 840 843 846 847 849 851 853 854 855 855 856 858 858 859 861
751 756 754 752 737 730 741 748 743 741 744 752 751 753 754 753 758 762 767 772 778 782 788 793 799 804 810 815 821 825 828 831 834 836 838 841 844 846 848 849 851 853 853 854 856 858 858 859 861
764 733 738 741 751 771 734 777 755 746 747 746 745 748 749 751 755 759 762 764 769 774 781 788 795 800 806 811 816 820 823 825 828 832 836 839 842 844 846 848 850 851 853 853 856 857 859 860 861
732 726 737 740 750 755 748 774 760 741 749 741 736 736 738 741 745 750 752 754 760 771 775 782 789 795 801 805 811 815 819 822 826 830 834 837 840 842 844 846 848 850 851 854 855 857 859 860 861
716 728 737 742 759 770 740 759 761 745 731 731 729 726 725 729 736 741 747 754 757 764 770 776 782 788 795 800 806 810 814 817 822 826 830 834 836 838 840 843 846 848 850 852 854 856 858 859 860
720 747 780 785 783 757 734 754 733 716 707 709 717 714 714 718 725 731 739 746 749 755 760 768 775 781 787 793 800 804 808 812 816 821 826 830 832 834 837 840 844 846 848 851 853 855 856 858 859
722 731 769 785 777 754 736 750 730 699 690 691 693 697 703 707 713 720 726 735 740 747 752 759 767 773 781 786 792 798 803 808 811 816 821 825 828 831 834 837 841 844 846 848 851 853 854 856 857
717 725 720 750 754 757 729 723 704 695 692 689 691 692 703 708 712 712 719 722 731 738 743 748 757 765 772 777 785 792 797 802 806 810 816 821 824 827 831 834 837 840 843 845 848 850 851 853 854
693 703 734 747 761 767 745 727 715 706 703 693 691 689 691 695 703 708 710 718 722 726 733 743 749 755 762 771 778 785 790 795 800 805 810 815 820 824 826 830 833 836 839 841 844 846 848 850 851
701 702 706 718 739 736 757 722 689 690 684 688 683 674 678 683 688 694 699 706 713 722 729 734 743 750 759 766 772 778 784 789 795 799 805 810 815 819 822 825 829 831 833 836 838 841 844 847 848
710 694 708 711 734 740 735 706 664 667 667 677 672 666 664 667 672 678 685 694 705 712 723 728 736 744 751 757 764 770 777 782 788 792 798 804 809 814 818 822 824 827 828 830 833 836 838 841 844